Tracking 23885 objects as of 28-Nov-2021
HD Live streaming from Space Station
objects crossing your sky now

SPACEBEE-78

Track SPACEBEE-78 now!
10-day predictions


NORAD ID: 47710
Int'l Code: 2021-015M
Perigee: 491.1 km
Apogee: 505.9 km
Inclination: 97.4 °
Period: 94.4 minutes
Semi major axis: 6869 km
RCS: Unknown
Launch date: February 28, 2021
Source: United States (US)
Launch site: SRIHARIKOTA (SRI)
aabbcc
Your satellite tracking list
Your tracking list is empty




NASA's NSSDC Master Catalog

Two Line Element Set (TLE):
1 47710U 21015M   21331.45268313  .00008075  00000-0  32781-3 0  9994
2 47710  97.4389  44.4638 0010730  67.5553 292.6820 15.24805940 41419
Source of the keplerian elements: AFSPC